GW3742 Weather Reports


time (UTC)temp
C
wind
direction
speed
KPH
gust
KPH
rain 1hr
cm
rain 24hr
cm
rain mn
cm
humidity
%
barometer
mb
20260507060058 10 170 0.0 0.0 0.00 0.00 0.58 90 1005.1
20260507054604 11 72 0.0 0.0 0.00 0.00 0.58 91 1005.0
20260507053030 11 72 0.0 0.0 0.00 0.00 0.58 92 1005.7
20260507051526 11 353 0.0 0.0 0.00 0.00 0.58 93 1005.4
20260507050008 11 1 0.0 0.0 0.00 0.00 0.58 92 1005.6
20260507044501 11 327 0.0 0.0 0.00 0.00 0.58 92 1005.2
20260507043039 12 34 0.0 0.0 0.00 0.00 0.58 92 1005.2
20260507041549 12 15 0.0 0.0 0.00 0.00 0.56 92 1005.2
20260507040013 12 15 0.0 0.0 0.00 0.00 0.56 91 1005.2
20260507034513 12 283 1.6 0.0 0.00 0.00 0.56 91 1005.3
20260507033047 13 146 0.0 0.0 0.00 0.00 0.56 92 1004.9
20260507031543 13 313 0.0 0.0 0.00 0.00 0.56 93 1004.4
20260507030021 13 4 1.6 0.0 0.00 0.00 0.53 92 1004.0
20260507024517 14 37 1.6 0.0 0.00 0.00 0.53 94 1004.1
20260507023111 15 190 1.6 0.0 0.00 0.00 0.53 94 1004.0
20260507021554 15 177 1.6 0.0 0.00 0.00 0.53 95 1004.1
20260507020029 14 220 0.0 0.0 0.00 0.00 0.53 95 1003.7
20260507014545 14 185 0.0 0.0 0.00 0.00 0.53 95 1003.8
20260507013013 14 180 0.0 0.0 0.00 0.00 0.53 95 1003.7
20260507011600 14 269 0.0 0.0 0.00 0.00 0.53 94 1003.7
20260507010038 14 123 1.6 0.0 0.00 0.00 0.53 94 1003.7
20260507004533 14 195 3.2 0.0 0.00 0.00 0.53 94 1003.7
20260507003012 14 225 3.2 0.0 0.00 0.00 0.53 94 1003.6
20260507001508 14 171 3.2 0.0 0.00 0.00 0.53 94 1003.4
20260507000048 14 202 1.6 0.0 0.00 0.00 0.53 94 1003.5
20260506234542 14 213 1.6 0.0 0.00 0.00 0.53 94 1003.3
20260506233023 15 285 1.6 0.0 0.00 0.00 0.53 94 1003.2
20260506231516 15 166 1.6 0.0 0.00 0.00 0.53 94 1003.2
20260506230054 15 309 3.2 0.0 0.00 0.00 0.53 94 1003.4
20260506224551 15 207 3.2 0.0 0.00 0.00 0.46 93 1003.4
20260506223029 15 181 4.8 0.0 0.00 0.00 0.43 93 1003.4
20260506221524 15 181 3.2 0.0 0.00 0.00 0.38 93 1003.6
20260506220004 15 128 3.2 0.0 0.00 0.00 0.36 93 1003.8
20260506214609 15 146 3.2 0.0 0.00 0.00 0.33 92 1003.7
20260506213038 15 191 3.2 0.0 0.00 0.00 0.30 92 1003.7
20260506211534 15 196 3.2 0.0 0.00 0.00 0.28 92 1003.8
20260506210014 15 101 3.2 0.0 0.00 0.00 0.28 92 1004.1
20260506204508 15 168 1.6 0.0 0.00 0.00 0.28 92 1004.2
20260506203048 15 184 3.2 0.0 0.00 0.00 0.23 91 1004.4
20260506201542 16 207 4.8 0.0 0.00 0.00 0.18 90 1004.2
20260506200021 16 249 3.2 0.0 0.00 0.00 0.15 89 1004.3
20260506194516 16 343 4.8 0.0 0.00 0.00 0.15 88 1004.5
20260506193114 16 174 4.8 0.0 0.00 0.00 0.15 88 1004.4
20260506191550 16 272 3.2 0.0 0.00 0.00 0.15 89 1004.4
20260506190046 16 199 0.0 0.0 0.00 0.00 0.13 89 1004.3
20260506184524 17 258 1.6 0.0 0.00 0.00 0.10 87 1004.6
20260506183023 17 220 3.2 0.0 0.00 0.00 0.08 85 1004.8
20260506181558 18 237 1.6 0.0 0.00 0.00 0.03 80 1005.0
20260506180104 20 174 6.4 0.0 0.00 0.00 0.00 70 1005.0
20260506174533 21 286 4.8 0.0 0.00 0.00 0.00 64 1004.9
20260506173028 21 174 6.4 0.0 0.00 0.00 0.00 62 1004.8
20260506171507 21 197 9.7 0.0 0.00 0.00 0.00 58 1004.9
20260506170003 22 247 6.4 0.0 0.00 0.00 0.00 59 1004.7
20260506164541 22 172 4.8 0.0 0.00 0.00 0.00 60 1005.0
20260506163045 21 182 6.4 0.0 0.00 0.00 0.00 63 1005.2
20260506161521 21 61 4.8 0.0 0.00 0.00 0.00 64 1005.5
20260506160013 21 213 3.2 0.0 0.00 0.00 0.00 66 1005.7
20260506154549 20 147 1.6 0.0 0.00 0.00 0.00 67 1006.0
20260506153046 20 110 1.6 0.0 0.00 0.00 0.00 67 1006.2
20260506151527 20 142 3.2 0.0 0.00 0.00 0.00 68 1006.6
20260506150029 20 148 4.8 0.0 0.00 0.00 0.00 68 1006.8
20260506144506 20 82 6.4 0.0 0.00 0.00 0.00 70 1006.8
20260506143008 19 135 8.0 0.0 0.00 0.00 0.00 70 1006.7
20260506141546 19 107 3.2 0.0 0.00 0.00 0.00 72 1006.6
20260506140048 19 96 4.8 0.0 0.00 0.00 0.00 71 1006.4
20260506134602 19 93 1.6 0.0 0.00 0.00 0.00 73 1006.5
20260506133023 18 126 3.2 0.0 0.00 0.00 0.00 74 1006.7
20260506131504 18 101 4.8 0.0 0.00 0.00 0.00 75 1007.0
20260506130002 17 151 3.2 0.0 0.00 0.00 0.00 76 1007.2
20260506124544 17 129 4.8 0.0 0.00 0.00 0.00 76 1007.1
20260506123046 17 111 3.2 0.0 0.00 0.00 0.00 76 1007.1
20260506121522 17 122 4.8 0.0 0.00 0.00 0.00 79 1006.9
20260506120022 16 53 3.2 0.0 0.00 0.00 0.00 79 1007.3
20260506114503 16 112 0.0 0.0 0.00 0.00 0.00 81 1007.4
20260506113059 16 127 3.2 0.0 0.00 0.00 0.00 80 1007.6
20260506111540 16 128 3.2 0.0 0.00 0.00 0.00 81 1007.8
20260506110036 16 130 3.2 0.0 0.00 0.00 0.00 80 1007.6
20260506104518 15 138 1.6 0.0 0.00 0.00 0.00 82 1007.7
20260506103025 15 131 1.6 0.0 0.00 0.00 0.00 82 1007.5
20260506101559 15 134 1.6 0.0 0.00 0.00 0.00 82 1007.5
20260506100105 14 173 3.2 0.0 0.00 0.00 0.00 82 1007.6
20260506094541 15 164 1.6 0.0 0.00 0.00 0.00 81 1007.4
20260506093040 15 169 1.6 0.0 0.00 0.00 0.00 81 1007.3
20260506091522 15 181 3.2 0.0 0.00 0.00 0.00 81 1007.5
20260506090021 15 157 3.2 0.0 0.00 0.00 0.00 80 1007.3
20260506084503 15 257 1.6 0.0 0.00 0.00 0.00 80 1007.4
20260506083005 15 180 1.6 0.0 0.00 0.00 0.00 79 1007.5
20260506081549 15 359 0.0 0.0 0.00 0.00 0.00 79 1007.4
20260506073026 15 199 1.6 0.0 0.00 0.00 0.00 78 1007.3
20260506071513 15 97 0.0 0.0 0.00 0.00 0.00 77 1007.2
20260506061538 16 278 0.0 0.0 0.00 0.00 0.00 72 1007.0